Terminal Aerodrome Forecast
Issued by NWS

Home | Current Version | Previous Version | Text Only | Print | Product List | Glossary Off
Versions: 1 2 3 4 5 6 7 8 9 10 11 12 13 14 15 16 17 18 19 20 21 22 23 24 25 26 27 28 29 30 31 32 33 34 35

000
FTUS43 KLOT 071600 AAB
TAFMDW
TAF AMD
KMDW 071600Z 0716/0812 01015G23KT P6SM SCT035
      TEMPO 0716/0717 OVC035
     FM072300 03010KT P6SM SCT200
     FM080300 02007KT P6SM FEW250=

USA.gov is the U.S. government's official web portal to all federal, state and local government web resources and services.